Find WHDW 05-01

NORAD ID: 64956 Int'l Des: 2025-159 Owner: ZXW Country: CN Constellation: xingwang operational
LEOCIRCULARPOLARONEWEB_TYPE

当前视图

正在加载3D地球...

About WHDW 05-01

WHDW 05-01 (NORAD 64956) is a xingwang constellation satellite launched Jul 27, 2025 by ZXW of CN. It operates in LEO, CIRCULAR, POLAR, ONEWEB_TYPE orbit with a mass of 700.00 kg.

关于 WHDW 05-01

正在加载描述...

即将过境

Passes for default location (London). Set your location on the main map for personalized predictions.

高度历史

Loading altitude history...

两行轨道根数

1 64956U 25159A 26195.59988272 .00000036 00000-0 49518-4 0 9995
2 64956 86.4941 273.1696 0004548 66.4481 293.7131 13.24413091 46754
Epoch: Jul 14, 2026 • Age: 8 hours

当前状态

高度 1173.8 km
远地点 / 近地点 N/A
速度 7.27 km/s
星下点 46.66°N, 178.24°W
发射日期 Jul 27, 2025
运行时间 0.9 years
类型 other

技术详情

分类 Payload
质量 700.00 kg
干质量 700.00 kg
总质量 700.00 kg
长度 3.00 m
直径 1.00 m
跨度 10.00 m
形状 Box + 2 Pan
制造商 CAST
平台类型 Xingwang C
阶段状态 In Orbit
所有者/国家 ZXW/CN

Most Searched